Du Bois, PA

2:19 PM EDT on October 21, 2017 (GMT -0400)
Du Bois-Jefferson County

Weather History for KDUJ - October, 2012

Change the Weather History Date:

Monday, October 15, 2012

  Actual Average Record
Temperature  
Mean Temperature 56 °F 49 °F  
Max Temperature 68 °F 59 °F 80 °F (1962)
Min Temperature 44 °F 40 °F 30 °F (2006)
Degree Days  
Heating Degree Days 9 16  
Month to date heating degree days 200 205  
Since 1 July heating degree days 423 451  
Cooling Degree Days 0 0  
Month to date cooling degree days 2 0  
Year to date cooling degree days 547 360  
Growing Degree Days 5 (Base 50)    
Moisture  
Dew Point 46 °F    
Average Humidity 73    
Maximum Humidity 93    
Minimum Humidity 52    
Precipitation  
Precipitation 0.10 in 0.10 in 0.59 in (2014)
Month to date precipitation 0.45 1.55  
Year to date precipitation 34.79  
Sea Level Pressure  
Sea Level Pressure 29.74 in    
Wind  
Wind Speed 13 mph (West)    
Max Wind Speed 25 mph    
Max Gust Speed 32 mph    
Visibility 10 miles    
Events Rain    
T = Trace of Precipitation, MM = Missing Value Source: NWS Daily Summary

Daily Weather History Graph

Daily Weather History Graph

Search for Another Location

Airport or City:

Trip Planner

Search our weather history database for the weather conditions in past years. The results will help you decide how hot, cold, wet, or windy it might be!

Date:

Astronomy

Oct. 15, 2012 Rise Set
Actual Time 7:27 AM EDT 6:34 PM EDT
Civil Twilight 6:59 AM EDT 7:01 PM EDT
Nautical Twilight 6:27 AM EDT 7:33 PM EDT
Astronomical Twilight 5:56 AM EDT 8:05 PM EDT
Moon 7:36 AM EDT (10/15) 6:31 PM EDT (10/15)
Length of Visible Light 12h 01m
Length of Day
11h 06m
New Moon, 0% of the Moon is Illuminated
Oct 15
New Moon
Oct 21
First Quarter
Oct 29
Full
Nov 6
Last Quarter
Nov 13
New

Hourly Weather History & Observations

Time (EDT) Temp. Windchill Dew Point Humidity Pressure Visibility Wind Dir Wind Speed Gust Speed Precip Events Conditions
1:56 AM 66.9 °F - 50.0 °F 54% 29.65 in 10.0 mi SSW 19.6 mph 27.6 mph N/A   Mostly Cloudy
2:56 AM 66.0 °F - 50.0 °F 56% 29.63 in 10.0 mi SW 15.0 mph 25.3 mph N/A   Overcast
3:56 AM 66.0 °F - 51.1 °F 59% 29.62 in 10.0 mi SW 12.7 mph 31.1 mph N/A   Mostly Cloudy
4:56 AM 63.0 °F - 53.1 °F 70% 29.61 in 10.0 mi SW 9.2 mph 28.8 mph N/A   Overcast
5:27 AM 62.6 °F - 53.6 °F 72% 29.66 in 10.0 mi SW 17.3 mph 26.5 mph N/A   Overcast
5:44 AM 57.2 °F - 53.6 °F 88% 29.68 in 4.0 mi WSW 18.4 mph 26.5 mph 0.02 in Rain Light Rain
5:56 AM 55.9 °F - 54.0 °F 93% 29.65 in 3.0 mi WSW 19.6 mph 32.2 mph 0.08 in Rain Light Rain
6:04 AM 55.4 °F - 53.6 °F 94% 29.67 in 9.0 mi SW 12.7 mph 23.0 mph 0.00 in Rain Light Rain
6:23 AM 55.4 °F - 53.6 °F 94% 29.68 in 10.0 mi SW 12.7 mph 21.9 mph 0.00 in   Overcast
6:49 AM 55.4 °F - 53.6 °F 94% 29.69 in 10.0 mi SW 12.7 mph 20.7 mph 0.00 in   Overcast
6:56 AM 55.9 °F - 53.1 °F 90% 29.68 in 10.0 mi SW 10.4 mph 20.7 mph 0.00 in   Overcast
7:38 AM 55.4 °F - 51.8 °F 88% 29.71 in 10.0 mi WSW 11.5 mph 21.9 mph N/A   Overcast
8:40 AM 53.6 °F - 48.2 °F 82% 29.74 in 10.0 mi West 12.7 mph 20.7 mph N/A   Overcast
8:48 AM 53.6 °F - 48.2 °F 82% 29.74 in 10.0 mi WSW 17.3 mph 23.0 mph N/A   Overcast
8:56 AM 52.0 °F - 46.9 °F 83% 29.73 in 10.0 mi WSW 15.0 mph 25.3 mph N/A   Mostly Cloudy
9:28 AM 51.8 °F - 46.4 °F 82% 29.75 in 10.0 mi West 13.8 mph 20.7 mph N/A   Overcast
9:56 AM 51.1 °F - 46.0 °F 83% 29.75 in 10.0 mi West 11.5 mph - N/A   Overcast
10:04 AM 51.8 °F - 44.6 °F 76% 29.76 in 10.0 mi West 11.5 mph - N/A   Overcast
10:34 AM 51.8 °F - 44.6 °F 76% 29.77 in 10.0 mi West 16.1 mph 21.9 mph N/A   Overcast
10:56 AM 51.1 °F - 45.0 °F 80% 29.77 in 10.0 mi WSW 12.7 mph - N/A   Overcast
11:56 AM 53.1 °F - 44.1 °F 71% 29.76 in 10.0 mi WSW 11.5 mph - N/A   Overcast
12:56 PM 55.0 °F - 44.1 °F 67% 29.73 in 10.0 mi West 12.7 mph - N/A   Overcast
1:13 PM 55.4 °F - 42.8 °F 63% 29.74 in 10.0 mi West 13.8 mph - N/A   Overcast
2:56 PM 55.9 °F - 42.1 °F 60% 29.70 in 10.0 mi West 15.0 mph - N/A   Overcast
3:56 PM 55.9 °F - 41.0 °F 57% 29.70 in 10.0 mi West 17.3 mph - N/A   Overcast
4:56 PM 55.0 °F - 41.0 °F 59% 29.72 in 10.0 mi West 11.5 mph - N/A   Mostly Cloudy
5:39 PM 51.8 °F - 41.0 °F 67% 29.76 in 10.0 mi WNW 21.9 mph 28.8 mph N/A   Overcast
5:52 PM 48.2 °F - 42.8 °F 82% 29.76 in 10.0 mi West 11.5 mph - N/A   Overcast
5:56 PM 48.9 °F - 42.1 °F 77% 29.76 in 10.0 mi West 11.5 mph - N/A   Overcast
6:35 PM 48.2 °F - 42.8 °F 82% 29.77 in 10.0 mi WNW 10.4 mph - N/A   Overcast
7:06 PM 48.2 °F - 41.0 °F 76% 29.78 in 10.0 mi WNW 11.5 mph - N/A   Overcast
7:56 PM 46.9 °F - 39.9 °F 77% 29.80 in 10.0 mi WNW 9.2 mph - N/A   Scattered Clouds
8:19 PM 46.4 °F 41.1 °F 39.2 °F 76% 29.79 in 10.0 mi West 11.5 mph - N/A   Mostly Cloudy
8:56 PM 46.9 °F - 39.9 °F 77% 29.81 in 10.0 mi WNW 10.4 mph 19.6 mph N/A   Overcast
9:15 PM 46.4 °F 41.9 °F 39.2 °F 76% 29.81 in 10.0 mi WNW 9.2 mph - N/A   Overcast
9:29 PM 46.4 °F 41.9 °F 39.2 °F 76% 29.82 in 10.0 mi WNW 9.2 mph - N/A   Overcast
9:56 PM 46.0 °F 41.4 °F 39.9 °F 79% 29.83 in 10.0 mi WNW 9.2 mph - N/A   Overcast
10:16 PM 46.4 °F 41.1 °F 39.2 °F 76% 29.82 in 10.0 mi WNW 11.5 mph - N/A   Overcast
10:56 PM 45.0 °F 40.1 °F 42.1 °F 90% 29.84 in 9.0 mi NW 9.2 mph - N/A   Overcast
11:10 PM 44.6 °F 41.4 °F 42.8 °F 93% 29.83 in 10.0 mi WNW 5.8 mph - N/A   Overcast
11:16 PM 44.6 °F 41.4 °F 42.8 °F 93% 29.83 in 9.0 mi WNW 5.8 mph - N/A   Overcast
11:56 PM 44.1 °F 40.8 °F 42.1 °F 93% 29.85 in 10.0 mi NW 5.8 mph - N/A   Overcast